PGT695 OEJN-LTFJ

Flight info

Callsign PGT695
Flight time 5h 0m
Altitude 32000
Route MIGDA L677 GESON DCT LAGVI Q777 RASDA M855 TOMBI UM855 EKSEN UL610 OSGED UL620 ETAMP
Aircraft B738/M-SDE2E3FGHIRWXY/LB1

Departure

Time 2026-04-27 17:48
Airport King Abdulaziz International Airport (OEJN)

Arrival

Time 2026-04-27 22:48
Airport Istanbul Sabiha Gökçen International Airport (LTFJ)
Time Latitude Longitude Altitude Speed Heading
2026-04-27 17:07 21.67404 39.14240 -4 ft 0 kts 125°
2026-04-27 17:33 21.67415 39.14222 29 ft 4 kts 128°
2026-04-27 17:33 21.67433 39.14201 27 ft 4 kts 139°
2026-04-27 17:34 21.67454 39.14184 28 ft 2 kts 146°
2026-04-27 17:34 21.67460 39.14180 28 ft 0 kts 146°
2026-04-27 17:36 21.67458 39.14181 27 ft 1 kts 149°
2026-04-27 17:36 21.67442 39.14185 27 ft 3 kts 176°
2026-04-27 17:37 21.67405 39.14175 24 ft 8 kts 195°
2026-04-27 17:37 21.67330 39.14162 23 ft 13 kts 165°
2026-04-27 17:37 21.67252 39.14194 23 ft 12 kts 161°
2026-04-27 17:37 21.67182 39.14229 24 ft 11 kts 126°
2026-04-27 17:38 21.67192 39.14307 26 ft 11 kts 69°
2026-04-27 17:38 21.67218 39.14382 24 ft 11 kts 70°
2026-04-27 17:38 21.67244 39.14459 25 ft 11 kts 69°
2026-04-27 17:38 21.67273 39.14546 26 ft 14 kts 70°
2026-04-27 17:39 21.67308 39.14651 27 ft 16 kts 70°
2026-04-27 17:39 21.67349 39.14770 28 ft 18 kts 69°
2026-04-27 17:39 21.67394 39.14902 29 ft 20 kts 70°
2026-04-27 17:39 21.67442 39.15035 30 ft 19 kts 70°
2026-04-27 17:40 21.67486 39.15166 31 ft 18 kts 70°
2026-04-27 17:40 21.67532 39.15296 32 ft 19 kts 69°
2026-04-27 17:40 21.67580 39.15434 32 ft 20 kts 70°
2026-04-27 17:40 21.67633 39.15576 33 ft 20 kts 67°
2026-04-27 17:41 21.67598 39.15695 33 ft 19 kts 161°
2026-04-27 17:41 21.67473 39.15744 31 ft 19 kts 160°
2026-04-27 17:41 21.67355 39.15790 32 ft 18 kts 159°
2026-04-27 17:41 21.67235 39.15837 33 ft 19 kts 160°
2026-04-27 17:42 21.67115 39.15885 33 ft 18 kts 160°
2026-04-27 17:42 21.66996 39.15932 34 ft 18 kts 159°
2026-04-27 17:42 21.66872 39.15980 34 ft 21 kts 160°
2026-04-27 17:42 21.66716 39.16045 34 ft 26 kts 160°
2026-04-27 17:43 21.66547 39.16108 35 ft 25 kts 161°
2026-04-27 17:43 21.66388 39.16170 35 ft 23 kts 161°
2026-04-27 17:43 21.66242 39.16230 36 ft 22 kts 157°
2026-04-27 17:43 21.66104 39.16289 35 ft 20 kts 147°
2026-04-27 17:44 21.66089 39.16358 35 ft 0 kts 64°
2026-04-27 17:46 21.66094 39.16368 32 ft 5 kts 64°
2026-04-27 17:46 21.66125 39.16437 32 ft 14 kts 56°
2026-04-27 17:46 21.66215 39.16449 34 ft 14 kts 341°
2026-04-27 17:47 21.66302 39.16415 34 ft 25 kts 340°
2026-04-27 17:47 21.66513 39.16332 35 ft 71 kts 340°
2026-04-27 17:47 21.67490 39.15950 34 ft 150 kts 340°
2026-04-27 17:47 21.68580 39.15523 388 ft 172 kts 339°
2026-04-27 17:48 21.69691 39.15062 1234 ft 168 kts 341°
2026-04-27 17:48 21.70773 39.14622 2065 ft 168 kts 342°
2026-04-27 17:48 21.71950 39.14160 2454 ft 189 kts 341°
2026-04-27 17:48 21.73255 39.13669 2800 ft 207 kts 342°
2026-04-27 17:49 21.74665 39.13134 3085 ft 224 kts 340°
2026-04-27 17:49 21.76173 39.12531 3443 ft 237 kts 340°
2026-04-27 17:49 21.77758 39.11906 3823 ft 254 kts 340°
2026-04-27 17:49 21.79496 39.11216 4144 ft 273 kts 340°
2026-04-27 17:50 21.81290 39.10503 4855 ft 277 kts 339°
2026-04-27 17:50 21.84895 39.09075 6326 ft 281 kts 338°
2026-04-27 17:50 21.86744 39.08344 6986 ft 285 kts 338°
2026-04-27 17:51 21.88615 39.07605 7670 ft 287 kts 337°
2026-04-27 17:51 21.90489 39.06834 8346 ft 290 kts 334°
2026-04-27 17:51 21.92348 39.05952 9040 ft 292 kts 332°
2026-04-27 17:51 21.94208 39.05043 9788 ft 294 kts 332°
2026-04-27 17:52 21.96094 39.04127 10270 ft 305 kts 332°
2026-04-27 17:52 21.98084 39.03167 10434 ft 327 kts 333°
2026-04-27 17:52 22.00229 39.02138 10591 ft 347 kts 333°
2026-04-27 17:52 22.02504 39.01051 10732 ft 366 kts 333°
2026-04-27 17:53 22.04885 38.99912 10860 ft 383 kts 333°
2026-04-27 17:53 22.07371 38.98724 11064 ft 396 kts 333°
2026-04-27 17:53 22.09912 38.97510 11458 ft 402 kts 333°
2026-04-27 17:53 22.12479 38.96283 11963 ft 405 kts 333°
2026-04-27 17:54 22.15069 38.95044 12477 ft 407 kts 333°
2026-04-27 17:54 22.17666 38.93800 12951 ft 410 kts 333°
2026-04-27 17:54 22.20286 38.92547 13424 ft 414 kts 332°
2026-04-27 17:54 22.22891 38.91303 13886 ft 416 kts 332°
2026-04-27 17:55 22.25545 38.90035 14349 ft 418 kts 332°
2026-04-27 17:55 22.28209 38.88760 14797 ft 419 kts 332°
2026-04-27 17:55 22.30700 38.87566 15226 ft 421 kts 331°
2026-04-27 17:55 22.33384 38.86278 15667 ft 423 kts 331°
2026-04-27 17:56 22.35719 38.85157 16032 ft 425 kts 331°
2026-04-27 17:56 22.38428 38.83856 16461 ft 426 kts 330°
2026-04-27 17:56 22.41137 38.82555 16886 ft 428 kts 330°
2026-04-27 17:56 22.43873 38.81239 17293 ft 430 kts 330°
2026-04-27 17:57 22.46613 38.79922 17691 ft 432 kts 330°
2026-04-27 17:57 22.49329 38.78616 18075 ft 434 kts 330°
2026-04-27 17:57 22.52095 38.77285 18399 ft 436 kts 330°
2026-04-27 17:57 22.54890 38.75939 18713 ft 439 kts 330°
2026-04-27 17:58 22.57684 38.74593 19018 ft 441 kts 330°
2026-04-27 17:58 22.60494 38.73239 19323 ft 443 kts 329°
2026-04-27 17:58 22.63319 38.71877 19632 ft 445 kts 329°
2026-04-27 17:58 22.66168 38.70530 19937 ft 448 kts 330°
2026-04-27 17:59 22.69059 38.69230 20238 ft 451 kts 331°
2026-04-27 17:59 22.71975 38.67949 20529 ft 453 kts 332°
2026-04-27 17:59 22.74906 38.66669 20820 ft 455 kts 332°
2026-04-27 17:59 22.77809 38.65399 21090 ft 457 kts 332°
2026-04-27 18:00 22.80768 38.64097 21369 ft 459 kts 331°
2026-04-27 18:00 22.83733 38.62787 21646 ft 461 kts 331°
2026-04-27 18:00 22.86708 38.61467 21916 ft 462 kts 331°
2026-04-27 18:00 22.89697 38.60138 22184 ft 464 kts 331°
2026-04-27 18:01 22.92696 38.58803 22441 ft 466 kts 331°
2026-04-27 18:01 22.95701 38.57464 22702 ft 468 kts 331°
2026-04-27 18:01 22.98678 38.56137 22949 ft 469 kts 331°
2026-04-27 18:01 23.01703 38.54788 23192 ft 471 kts 331°
2026-04-27 18:02 23.04749 38.53430 23436 ft 472 kts 331°
2026-04-27 18:02 23.07793 38.52072 23642 ft 473 kts 331°
2026-04-27 18:02 23.10845 38.50710 23866 ft 474 kts 331°
2026-04-27 18:02 23.13904 38.49344 24101 ft 474 kts 331°
2026-04-27 18:03 23.16960 38.47980 24327 ft 474 kts 331°
2026-04-27 18:03 23.19981 38.46629 24514 ft 475 kts 331°
2026-04-27 18:03 23.23051 38.45256 24715 ft 476 kts 331°
2026-04-27 18:03 23.26130 38.43878 24904 ft 477 kts 331°
2026-04-27 18:04 23.29203 38.42502 25085 ft 477 kts 331°
2026-04-27 18:04 23.32279 38.41124 25259 ft 478 kts 331°
2026-04-27 18:04 23.35357 38.39744 25431 ft 479 kts 331°
2026-04-27 18:04 23.38416 38.38373 25596 ft 480 kts 331°
2026-04-27 18:05 23.41504 38.36987 25798 ft 479 kts 330°
2026-04-27 18:05 23.44590 38.35603 26057 ft 478 kts 330°
2026-04-27 18:05 23.47660 38.34225 26336 ft 476 kts 330°
2026-04-27 18:05 23.50721 38.32850 26592 ft 475 kts 330°
2026-04-27 18:06 23.53776 38.31476 26812 ft 475 kts 330°
2026-04-27 18:06 23.56793 38.30118 27037 ft 474 kts 330°
2026-04-27 18:06 23.59845 38.28744 27281 ft 473 kts 330°
2026-04-27 18:06 23.62886 38.27375 27555 ft 472 kts 330°
2026-04-27 18:07 23.65919 38.26010 27825 ft 471 kts 329°
2026-04-27 18:07 23.68956 38.24647 28059 ft 470 kts 329°
2026-04-27 18:07 23.71983 38.23289 28298 ft 470 kts 329°
2026-04-27 18:07 23.75006 38.21933 28553 ft 469 kts 329°
2026-04-27 18:08 23.77986 38.20595 28832 ft 468 kts 329°
2026-04-27 18:08 23.80991 38.19245 29119 ft 466 kts 329°
2026-04-27 18:08 23.83993 38.17895 29335 ft 466 kts 329°
2026-04-27 18:08 23.86991 38.16546 29560 ft 466 kts 329°
2026-04-27 18:09 23.89989 38.15195 29808 ft 465 kts 328°
2026-04-27 18:09 23.92981 38.13847 30037 ft 464 kts 328°
2026-04-27 18:09 23.95966 38.12502 30266 ft 462 kts 328°
2026-04-27 18:09 23.98938 38.11162 30510 ft 460 kts 328°
2026-04-27 18:10 24.01856 38.09845 30752 ft 458 kts 328°
2026-04-27 18:10 24.04806 38.08512 30974 ft 457 kts 328°
2026-04-27 18:10 24.07742 38.07185 31199 ft 456 kts 328°
2026-04-27 18:10 24.10674 38.05860 31439 ft 455 kts 328°
2026-04-27 18:11 24.13592 38.04534 31697 ft 451 kts 327°
2026-04-27 18:11 24.16354 38.02991 31925 ft 439 kts 319°
2026-04-27 18:11 24.18879 38.01133 32158 ft 435 kts 316°
2026-04-27 18:11 24.21332 37.99269 32390 ft 433 kts 316°
2026-04-27 18:12 24.23799 37.97384 32641 ft 431 kts 316°
2026-04-27 18:12 24.26261 37.95506 32908 ft 429 kts 316°
2026-04-27 18:12 24.28714 37.93645 33176 ft 428 kts 316°
2026-04-27 18:12 24.31167 37.91791 33398 ft 427 kts 316°
2026-04-27 18:13 24.33615 37.89944 33630 ft 426 kts 316°
2026-04-27 18:13 24.36021 37.88133 33856 ft 424 kts 316°
2026-04-27 18:13 24.38459 37.86300 34030 ft 423 kts 316°
2026-04-27 18:13 24.40891 37.84468 34184 ft 423 kts 316°
2026-04-27 18:14 24.43315 37.82642 34349 ft 423 kts 316°
2026-04-27 18:14 24.45744 37.80813 34514 ft 422 kts 316°
2026-04-27 18:14 24.48173 37.78982 34694 ft 421 kts 316°
2026-04-27 18:14 24.50561 37.77182 34834 ft 421 kts 316°
2026-04-27 18:15 24.52977 37.75359 34943 ft 421 kts 316°
2026-04-27 18:15 24.55390 37.73537 35049 ft 421 kts 316°
2026-04-27 18:15 24.57766 37.71741 35160 ft 421 kts 316°
2026-04-27 18:15 24.60183 37.69915 35312 ft 421 kts 316°
2026-04-27 18:16 24.62570 37.68112 35496 ft 419 kts 316°
2026-04-27 18:16 24.64981 37.66289 35670 ft 419 kts 316°
2026-04-27 18:16 24.69754 37.62678 35904 ft 418 kts 316°
2026-04-27 18:17 24.73763 37.59638 35915 ft 420 kts 316°
2026-04-27 18:17 24.79351 37.55403 35919 ft 419 kts 316°
2026-04-27 18:18 24.83342 37.52375 35934 ft 418 kts 316°
2026-04-27 18:18 24.88131 37.48737 35937 ft 418 kts 316°
2026-04-27 18:19 24.92926 37.45091 35928 ft 418 kts 316°
2026-04-27 18:19 24.97716 37.41445 35930 ft 417 kts 315°
2026-04-27 18:20 25.02467 37.37826 35931 ft 417 kts 315°
2026-04-27 18:20 25.07227 37.34196 35925 ft 417 kts 315°
2026-04-27 18:21 25.12009 37.30546 35933 ft 416 kts 315°
2026-04-27 18:21 25.16671 37.26984 35929 ft 416 kts 315°
2026-04-27 18:22 25.21445 37.23332 35931 ft 416 kts 315°
2026-04-27 18:22 25.26178 37.19709 35929 ft 416 kts 315°
2026-04-27 18:23 25.30936 37.16061 35926 ft 417 kts 315°
2026-04-27 18:23 25.35705 37.12397 35927 ft 417 kts 315°
2026-04-27 18:24 25.40479 37.08727 35928 ft 419 kts 315°
2026-04-27 18:24 25.45287 37.05044 35926 ft 420 kts 315°
2026-04-27 18:25 25.50067 37.01383 35927 ft 421 kts 315°
2026-04-27 18:25 25.54890 36.97683 35921 ft 421 kts 315°
2026-04-27 18:26 25.59710 36.93979 35924 ft 422 kts 315°
2026-04-27 18:26 25.64528 36.90272 35922 ft 422 kts 315°
2026-04-27 18:27 25.69351 36.86559 35923 ft 422 kts 315°
2026-04-27 18:27 25.74168 36.82843 35918 ft 422 kts 315°
2026-04-27 18:28 25.78974 36.79119 35918 ft 421 kts 315°
2026-04-27 18:28 25.83744 36.75416 35916 ft 421 kts 315°
2026-04-27 18:29 25.88546 36.71686 35916 ft 421 kts 315°
2026-04-27 18:29 25.93346 36.67954 35913 ft 421 kts 315°
2026-04-27 18:30 25.98143 36.64221 35901 ft 421 kts 315°
2026-04-27 18:30 26.02868 36.60540 35899 ft 420 kts 315°
2026-04-27 18:31 26.07630 36.56826 35896 ft 420 kts 315°
2026-04-27 18:31 26.12420 36.53085 35894 ft 420 kts 315°
2026-04-27 18:32 26.17195 36.49329 35893 ft 418 kts 313°
2026-04-27 18:32 26.21321 36.44966 35895 ft 407 kts 305°
2026-04-27 18:33 26.25245 36.40399 35894 ft 408 kts 305°
2026-04-27 18:33 26.29155 36.35868 35895 ft 409 kts 305°
2026-04-27 18:34 26.33110 36.31302 35898 ft 410 kts 305°
2026-04-27 18:34 26.37076 36.26726 35905 ft 410 kts 305°
2026-04-27 18:35 26.41046 36.22142 35906 ft 411 kts 305°
2026-04-27 18:35 26.45018 36.17549 35907 ft 411 kts 305°
2026-04-27 18:36 26.48989 36.12953 35902 ft 411 kts 305°
2026-04-27 18:36 26.52931 36.08386 35900 ft 411 kts 306°
2026-04-27 18:37 26.56900 36.03782 35901 ft 411 kts 306°
2026-04-27 18:37 26.60868 35.99174 35905 ft 411 kts 306°
2026-04-27 18:38 26.64831 35.94567 35901 ft 411 kts 306°
2026-04-27 18:38 26.68790 35.89959 35902 ft 411 kts 306°
2026-04-27 18:39 26.72723 35.85376 35903 ft 411 kts 306°
2026-04-27 18:39 26.76679 35.80763 35896 ft 411 kts 306°
2026-04-27 18:40 26.80636 35.76145 35897 ft 411 kts 306°
2026-04-27 18:40 26.84594 35.71523 35896 ft 411 kts 306°
2026-04-27 18:41 26.88523 35.66928 35900 ft 411 kts 306°
2026-04-27 18:41 26.92503 35.62267 35899 ft 411 kts 306°
2026-04-27 18:42 26.95785 35.58419 35899 ft 411 kts 306°
2026-04-27 18:42 27.00376 35.53031 35902 ft 411 kts 306°
2026-04-27 18:43 27.04327 35.48389 35899 ft 411 kts 306°
2026-04-27 18:43 27.08276 35.43745 35899 ft 411 kts 306°
2026-04-27 18:44 27.12222 35.39099 35901 ft 411 kts 306°
2026-04-27 18:44 27.16171 35.34444 35903 ft 412 kts 306°
2026-04-27 18:45 27.20099 35.29808 35902 ft 412 kts 306°
2026-04-27 18:45 27.24048 35.25143 35902 ft 412 kts 306°
2026-04-27 18:46 27.28002 35.20467 35904 ft 412 kts 306°
2026-04-27 18:46 27.31953 35.15788 35909 ft 413 kts 306°
2026-04-27 18:47 27.35909 35.11099 35910 ft 413 kts 306°
2026-04-27 18:47 27.39837 35.06437 35913 ft 414 kts 306°
2026-04-27 18:48 27.43798 35.01731 35912 ft 414 kts 306°
2026-04-27 18:48 27.47760 34.97018 35910 ft 415 kts 306°
2026-04-27 18:49 27.51742 34.92307 35912 ft 416 kts 308°
2026-04-27 18:49 27.55951 34.87793 35904 ft 419 kts 310°
2026-04-27 18:50 27.60229 34.83333 35898 ft 419 kts 310°
2026-04-27 18:50 27.64496 34.78853 35904 ft 419 kts 309°
2026-04-27 18:51 27.68720 34.74386 35902 ft 419 kts 309°
2026-04-27 18:51 27.72841 34.70014 35891 ft 419 kts 309°
2026-04-27 18:52 27.77079 34.65513 35885 ft 418 kts 310°
2026-04-27 18:53 27.83433 34.58756 35884 ft 418 kts 310°
2026-04-27 18:53 27.87659 34.54254 35886 ft 418 kts 310°
2026-04-27 18:54 27.91891 34.49742 35885 ft 418 kts 310°
2026-04-27 18:54 27.96116 34.45234 35888 ft 417 kts 310°
2026-04-27 18:55 28.00290 34.40681 35881 ft 414 kts 305°
2026-04-27 18:55 28.03906 34.35721 35882 ft 411 kts 303°
2026-04-27 18:56 28.07509 34.30688 35886 ft 411 kts 303°
2026-04-27 18:56 28.11124 34.25658 35894 ft 412 kts 303°
2026-04-27 18:57 28.14758 34.20615 35890 ft 413 kts 303°
2026-04-27 18:57 28.18396 34.15567 35908 ft 413 kts 304°
2026-04-27 18:58 28.22011 34.10546 35927 ft 414 kts 304°
2026-04-27 18:58 28.25655 34.05478 35939 ft 415 kts 304°
2026-04-27 18:59 28.29305 34.00396 35944 ft 416 kts 304°
2026-04-27 18:59 28.32962 33.95297 35945 ft 416 kts 304°
2026-04-27 19:00 28.36605 33.90212 35961 ft 415 kts 304°
2026-04-27 19:00 28.40243 33.85128 35948 ft 414 kts 304°
2026-04-27 19:01 28.43867 33.80055 35947 ft 413 kts 304°
2026-04-27 19:01 28.47483 33.74988 35942 ft 413 kts 304°
2026-04-27 19:02 28.51075 33.69949 35957 ft 412 kts 304°
2026-04-27 19:02 28.54675 33.64894 35959 ft 410 kts 304°
2026-04-27 19:03 28.58244 33.59869 35953 ft 408 kts 304°
2026-04-27 19:03 28.61810 33.54844 35981 ft 408 kts 304°
2026-04-27 19:04 28.65376 33.49816 35979 ft 409 kts 304°
2026-04-27 19:04 28.68955 33.44771 35979 ft 410 kts 304°
2026-04-27 19:05 28.72549 33.39700 35980 ft 412 kts 304°
2026-04-27 19:05 28.76150 33.34614 35981 ft 413 kts 304°
2026-04-27 19:06 28.79731 33.29548 35974 ft 413 kts 304°
2026-04-27 19:06 28.83335 33.24443 35980 ft 413 kts 304°
2026-04-27 19:07 28.86939 33.19331 35984 ft 414 kts 304°
2026-04-27 19:07 28.90545 33.14209 35981 ft 413 kts 304°
2026-04-27 19:08 28.94145 33.09092 35987 ft 413 kts 304°
2026-04-27 19:08 28.97741 33.03971 35991 ft 413 kts 304°
2026-04-27 19:09 29.01334 32.98850 35993 ft 413 kts 304°
2026-04-27 19:09 29.04923 32.93728 35993 ft 413 kts 304°
2026-04-27 19:10 29.08481 32.88643 35991 ft 413 kts 304°
2026-04-27 19:10 29.12070 32.83508 35991 ft 413 kts 304°
2026-04-27 19:11 29.15653 32.78375 35990 ft 413 kts 304°
2026-04-27 19:11 29.19239 32.73231 35988 ft 413 kts 304°
2026-04-27 19:12 29.22793 32.68125 35991 ft 413 kts 304°
2026-04-27 19:12 29.26372 32.62979 35992 ft 413 kts 305°
2026-04-27 19:13 29.29945 32.57824 35994 ft 413 kts 304°
2026-04-27 19:13 29.33498 32.52650 35998 ft 413 kts 304°
2026-04-27 19:14 29.37043 32.47472 36001 ft 413 kts 304°
2026-04-27 19:14 29.40593 32.42285 36000 ft 413 kts 304°
2026-04-27 19:15 29.44116 32.37133 35997 ft 413 kts 304°
2026-04-27 19:15 29.47655 32.31952 36009 ft 413 kts 304°
2026-04-27 19:16 29.51197 32.26759 36006 ft 412 kts 305°
2026-04-27 19:16 29.54136 32.22447 36004 ft 412 kts 305°
2026-04-27 19:17 29.58244 32.16411 36007 ft 412 kts 304°
2026-04-27 19:17 29.61775 32.11214 36007 ft 412 kts 305°
2026-04-27 19:18 29.64707 32.06894 36003 ft 412 kts 305°
2026-04-27 19:18 29.68238 32.01685 36004 ft 413 kts 305°
2026-04-27 19:19 29.71762 31.96479 36010 ft 413 kts 305°
2026-04-27 19:19 29.75290 31.91261 36005 ft 413 kts 305°
2026-04-27 19:20 29.78815 31.86034 36008 ft 413 kts 304°
2026-04-27 19:20 29.82240 31.80732 35997 ft 412 kts 303°
2026-04-27 19:21 29.85619 31.75451 36001 ft 412 kts 304°
2026-04-27 19:21 29.89079 31.70172 35992 ft 415 kts 310°
2026-04-27 19:21 29.91290 31.68010 36017 ft 420 kts 322°
2026-04-27 19:22 29.93857 31.66333 36005 ft 427 kts 330°
2026-04-27 19:22 29.96691 31.65230 35990 ft 437 kts 343°
2026-04-27 19:22 29.99696 31.64644 36015 ft 439 kts 345°
2026-04-27 19:23 30.05755 31.63648 36011 ft 440 kts 345°
2026-04-27 19:23 30.11780 31.62643 36021 ft 440 kts 345°
2026-04-27 19:24 30.17827 31.61581 36018 ft 439 kts 345°
2026-04-27 19:24 30.23865 31.60496 36017 ft 439 kts 345°
2026-04-27 19:25 30.29888 31.59409 36015 ft 438 kts 345°
2026-04-27 19:25 30.35910 31.58322 36015 ft 437 kts 345°
2026-04-27 19:26 30.41880 31.57243 36013 ft 437 kts 345°
2026-04-27 19:26 30.47886 31.56158 36012 ft 436 kts 345°
2026-04-27 19:27 30.53870 31.55074 36003 ft 435 kts 345°
2026-04-27 19:27 30.59854 31.53990 36016 ft 435 kts 345°
2026-04-27 19:28 30.65830 31.52904 36021 ft 434 kts 345°
2026-04-27 19:28 30.71803 31.51819 36019 ft 434 kts 345°
2026-04-27 19:29 30.77779 31.50732 36019 ft 435 kts 345°
2026-04-27 19:29 30.83728 31.49653 36023 ft 435 kts 345°
2026-04-27 19:30 30.89724 31.48563 36022 ft 436 kts 345°
2026-04-27 19:30 30.95723 31.47471 36022 ft 436 kts 345°
2026-04-27 19:31 31.01682 31.46385 36021 ft 437 kts 345°
2026-04-27 19:31 31.07695 31.45287 36020 ft 437 kts 345°
2026-04-27 19:32 31.13710 31.44187 36016 ft 437 kts 345°
2026-04-27 19:32 31.19726 31.43086 36023 ft 437 kts 345°
2026-04-27 19:33 31.25695 31.41992 36025 ft 437 kts 345°
2026-04-27 19:33 31.31705 31.40871 36024 ft 437 kts 345°
2026-04-27 19:34 31.37702 31.39745 36022 ft 436 kts 345°
2026-04-27 19:34 31.43696 31.38620 36028 ft 436 kts 345°
2026-04-27 19:35 31.49685 31.37495 36021 ft 436 kts 345°
2026-04-27 19:35 31.55674 31.36379 36024 ft 436 kts 347°
2026-04-27 19:36 31.61735 31.35661 36027 ft 438 kts 349°
2026-04-27 19:36 31.67791 31.35111 36029 ft 438 kts 349°
2026-04-27 19:37 31.73848 31.34518 36026 ft 437 kts 349°
2026-04-27 19:37 31.79914 31.33893 36026 ft 437 kts 349°
2026-04-27 19:38 31.85984 31.33264 36028 ft 437 kts 349°
2026-04-27 19:38 31.92047 31.32633 36034 ft 438 kts 349°
2026-04-27 19:39 31.98116 31.31996 36035 ft 438 kts 349°
2026-04-27 19:39 32.04147 31.31364 36041 ft 438 kts 349°
2026-04-27 19:40 32.10229 31.30728 36036 ft 439 kts 349°
2026-04-27 19:40 32.16317 31.30093 36041 ft 439 kts 349°
2026-04-27 19:41 32.22413 31.29444 36033 ft 440 kts 349°
2026-04-27 19:41 32.28440 31.28790 36042 ft 440 kts 349°
2026-04-27 19:42 32.34617 31.28119 36035 ft 441 kts 349°
2026-04-27 19:42 32.40728 31.27456 36034 ft 441 kts 349°
2026-04-27 19:43 32.46806 31.26796 36029 ft 441 kts 349°
2026-04-27 19:43 32.52923 31.26132 36032 ft 442 kts 349°
2026-04-27 19:44 32.58909 31.24836 36035 ft 433 kts 337°
2026-04-27 19:44 32.64322 31.21920 36035 ft 429 kts 329°
2026-04-27 19:45 32.69653 31.18733 36031 ft 429 kts 329°
2026-04-27 19:45 32.75008 31.15566 36033 ft 430 kts 330°
2026-04-27 19:46 32.80372 31.12420 36032 ft 430 kts 330°
2026-04-27 19:46 32.85758 31.09264 36028 ft 431 kts 330°
2026-04-27 19:47 32.91140 31.06107 36027 ft 431 kts 330°
2026-04-27 19:47 32.96524 31.02942 36029 ft 432 kts 330°
2026-04-27 19:48 33.01874 30.99793 36024 ft 432 kts 330°
2026-04-27 19:48 33.07288 30.96654 36022 ft 434 kts 334°
2026-04-27 19:49 33.13170 30.94830 36023 ft 442 kts 350°
2026-04-27 19:49 33.19352 30.94535 36020 ft 445 kts 354°
2026-04-27 19:50 33.25511 30.94380 36020 ft 445 kts 354°
2026-04-27 19:50 33.31711 30.94188 36022 ft 445 kts 353°
2026-04-27 19:51 33.37907 30.93964 36022 ft 445 kts 353°
2026-04-27 19:51 33.44101 30.93731 36024 ft 445 kts 353°
2026-04-27 19:52 33.50248 30.93499 36018 ft 445 kts 353°
2026-04-27 19:52 33.56444 30.93266 36021 ft 445 kts 353°
2026-04-27 19:53 33.65735 30.92917 36020 ft 445 kts 354°
2026-04-27 19:53 33.71891 30.92685 36022 ft 445 kts 354°
2026-04-27 19:54 33.78084 30.92452 36017 ft 445 kts 354°
2026-04-27 19:54 33.84283 30.92218 36015 ft 445 kts 354°
2026-04-27 19:55 33.90439 30.91985 36013 ft 445 kts 354°
2026-04-27 19:55 33.96640 30.91744 36014 ft 445 kts 353°
2026-04-27 19:56 34.02829 30.91409 36011 ft 445 kts 353°
2026-04-27 19:56 34.09023 30.91049 36013 ft 446 kts 353°
2026-04-27 19:57 34.15236 30.90701 36012 ft 446 kts 353°
2026-04-27 19:57 34.21446 30.90359 36011 ft 447 kts 353°
2026-04-27 19:58 34.27615 30.90026 36007 ft 447 kts 354°
2026-04-27 19:58 34.33841 30.89713 36006 ft 447 kts 354°
2026-04-27 19:59 34.40066 30.89402 36001 ft 448 kts 354°
2026-04-27 19:59 34.46295 30.89086 36004 ft 448 kts 354°
2026-04-27 20:00 34.52523 30.88769 36001 ft 448 kts 354°
2026-04-27 20:00 34.58713 30.88453 36003 ft 448 kts 354°
2026-04-27 20:01 34.64952 30.88164 35999 ft 449 kts 355°
2026-04-27 20:01 34.71200 30.87974 36000 ft 449 kts 355°
2026-04-27 20:02 34.77453 30.87793 35997 ft 449 kts 355°
2026-04-27 20:02 34.83662 30.87601 35997 ft 449 kts 355°
2026-04-27 20:03 34.89904 30.87401 35997 ft 449 kts 355°
2026-04-27 20:03 34.96160 30.87199 35990 ft 449 kts 355°
2026-04-27 20:04 35.02409 30.86997 35993 ft 449 kts 355°
2026-04-27 20:04 35.07600 30.86830 35993 ft 449 kts 355°
2026-04-27 20:05 35.14909 30.86594 35996 ft 450 kts 355°
2026-04-27 20:05 35.21119 30.86391 35991 ft 450 kts 355°
2026-04-27 20:06 35.27379 30.86177 35998 ft 450 kts 355°
2026-04-27 20:06 35.33643 30.85962 35997 ft 450 kts 355°
2026-04-27 20:07 35.39915 30.85748 35985 ft 451 kts 355°
2026-04-27 20:07 35.46198 30.85533 35993 ft 451 kts 355°
2026-04-27 20:08 35.52440 30.85319 35989 ft 451 kts 355°
2026-04-27 20:08 35.58726 30.85103 35991 ft 452 kts 355°
2026-04-27 20:09 35.65014 30.84845 35988 ft 452 kts 354°
2026-04-27 20:09 35.71294 30.84446 35988 ft 452 kts 354°
2026-04-27 20:10 35.77533 30.84039 35989 ft 452 kts 354°
2026-04-27 20:10 35.83814 30.83647 35983 ft 452 kts 354°
2026-04-27 20:11 35.90094 30.83262 35987 ft 452 kts 354°
2026-04-27 20:11 35.96379 30.82876 35987 ft 452 kts 354°
2026-04-27 20:12 36.01596 30.82555 35984 ft 452 kts 354°
2026-04-27 20:12 36.08944 30.82193 35987 ft 452 kts 356°
2026-04-27 20:13 36.15194 30.82024 35985 ft 452 kts 356°
2026-04-27 20:13 36.21483 30.81845 35982 ft 452 kts 356°
2026-04-27 20:14 36.27765 30.81647 35982 ft 452 kts 356°
2026-04-27 20:14 36.34058 30.81443 35980 ft 452 kts 356°
2026-04-27 20:15 36.40303 30.81242 35974 ft 452 kts 356°
2026-04-27 20:15 36.46583 30.81030 35977 ft 452 kts 356°
2026-04-27 20:16 36.52872 30.80805 35978 ft 451 kts 356°
2026-04-27 20:16 36.59156 30.80579 35979 ft 451 kts 356°
2026-04-27 20:17 36.65440 30.80354 35987 ft 451 kts 356°
2026-04-27 20:17 36.70667 30.80168 35988 ft 451 kts 356°
2026-04-27 20:18 36.77977 30.79907 35993 ft 451 kts 356°
2026-04-27 20:18 36.84254 30.79682 35995 ft 451 kts 356°
2026-04-27 20:19 36.90494 30.79458 35995 ft 451 kts 356°
2026-04-27 20:19 36.96749 30.78964 35995 ft 450 kts 352°
2026-04-27 20:20 37.02981 30.78137 35996 ft 450 kts 351°
2026-04-27 20:20 37.09155 30.77320 35997 ft 450 kts 352°
2026-04-27 20:21 37.15435 30.76532 36003 ft 450 kts 352°
2026-04-27 20:21 37.21633 30.75770 36005 ft 450 kts 352°
2026-04-27 20:22 37.27858 30.75003 36013 ft 450 kts 352°
2026-04-27 20:22 37.33029 30.74364 36037 ft 449 kts 352°
2026-04-27 20:23 37.39269 30.73590 36040 ft 449 kts 352°
2026-04-27 20:23 37.45423 30.72767 36039 ft 449 kts 351°
2026-04-27 20:24 37.51588 30.71815 36040 ft 449 kts 351°
2026-04-27 20:24 37.57787 30.70876 36052 ft 448 kts 351°
2026-04-27 20:25 37.63998 30.70057 36072 ft 449 kts 352°
2026-04-27 20:25 37.70219 30.69323 36070 ft 449 kts 352°
2026-04-27 20:26 37.76444 30.68568 36063 ft 450 kts 352°
2026-04-27 20:26 37.82664 30.67798 36071 ft 450 kts 352°
2026-04-27 20:27 37.88837 30.66832 36067 ft 448 kts 344°
2026-04-27 20:27 37.94641 30.64145 36088 ft 443 kts 334°
2026-04-27 20:28 38.00281 30.60968 36076 ft 444 kts 334°
2026-04-27 20:28 38.04982 30.58353 36075 ft 444 kts 334°
2026-04-27 20:29 38.11609 30.54719 36086 ft 444 kts 334°
2026-04-27 20:29 38.17250 30.51633 36083 ft 444 kts 334°
2026-04-27 20:30 38.22930 30.48516 36087 ft 444 kts 334°
2026-04-27 20:30 38.28614 30.45391 36088 ft 444 kts 334°
2026-04-27 20:31 38.34259 30.42281 36094 ft 444 kts 334°
2026-04-27 20:31 38.39885 30.39175 36096 ft 444 kts 334°
2026-04-27 20:32 38.45547 30.36043 36095 ft 444 kts 334°
2026-04-27 20:32 38.51212 30.32905 36105 ft 443 kts 334°
2026-04-27 20:33 38.56864 30.29748 36104 ft 443 kts 334°
2026-04-27 20:33 38.62437 30.26604 36104 ft 443 kts 334°
2026-04-27 20:34 38.68086 30.23459 36108 ft 442 kts 334°
2026-04-27 20:34 38.73734 30.20315 36104 ft 442 kts 334°
2026-04-27 20:35 38.79363 30.17171 36110 ft 442 kts 334°
2026-04-27 20:35 38.84995 30.14015 36113 ft 442 kts 334°
2026-04-27 20:36 38.90588 30.10878 36118 ft 442 kts 334°
2026-04-27 20:36 38.96230 30.07709 36113 ft 442 kts 334°
2026-04-27 20:37 39.01873 30.04534 36123 ft 443 kts 334°
2026-04-27 20:37 39.07524 30.01347 36116 ft 443 kts 334°
2026-04-27 20:38 39.13165 29.98161 36112 ft 437 kts 334°
2026-04-27 20:38 39.15866 29.96636 36101 ft 422 kts 333°
2026-04-27 20:38 39.18507 29.95144 36098 ft 408 kts 333°
2026-04-27 20:39 39.21060 29.93699 36106 ft 394 kts 333°
2026-04-27 20:39 39.23528 29.92300 36100 ft 381 kts 333°
2026-04-27 20:39 39.28317 29.89575 36141 ft 379 kts 333°
2026-04-27 20:40 39.33212 29.86786 36148 ft 390 kts 333°
2026-04-27 20:40 39.38249 29.83927 36142 ft 398 kts 333°
2026-04-27 20:41 39.43331 29.81097 36130 ft 401 kts 334°
2026-04-27 20:41 39.48405 29.78274 36116 ft 391 kts 333°
2026-04-27 20:42 39.53383 29.75490 36140 ft 390 kts 333°
2026-04-27 20:42 39.58373 29.72693 36143 ft 391 kts 333°
2026-04-27 20:43 39.63389 29.69878 36137 ft 394 kts 333°
2026-04-27 20:43 39.68416 29.67059 36131 ft 392 kts 333°
2026-04-27 20:44 39.73392 29.64274 36138 ft 391 kts 333°
2026-04-27 20:44 39.78377 29.61488 36136 ft 390 kts 333°
2026-04-27 20:45 39.83354 29.58711 36131 ft 388 kts 333°
2026-04-27 20:45 39.88320 29.55945 36144 ft 388 kts 333°
2026-04-27 20:46 39.93195 29.53234 36145 ft 389 kts 333°
2026-04-27 20:46 39.98185 29.50461 36155 ft 390 kts 333°
2026-04-27 20:47 40.03196 29.47681 36157 ft 392 kts 333°
2026-04-27 20:47 40.08234 29.44889 36156 ft 394 kts 333°
2026-04-27 20:48 40.13299 29.42086 36157 ft 396 kts 333°
2026-04-27 20:48 40.18384 29.39277 36157 ft 397 kts 333°
2026-04-27 20:49 40.23483 29.36467 36158 ft 398 kts 333°
2026-04-27 20:49 40.28592 29.33652 36151 ft 398 kts 333°
2026-04-27 20:50 40.33662 29.30862 36155 ft 397 kts 333°
2026-04-27 20:50 40.37081 29.28983 36156 ft 397 kts 333°
2026-04-27 20:51 40.41212 29.26715 36151 ft 396 kts 333°
2026-04-27 20:51 40.46280 29.23938 36156 ft 394 kts 333°
2026-04-27 20:52 40.51299 29.21193 36172 ft 393 kts 333°
2026-04-27 20:52 40.55268 29.19021 36160 ft 392 kts 334°
2026-04-27 20:53 40.60336 29.16249 36171 ft 391 kts 333°
2026-04-27 20:53 40.65358 29.13504 36189 ft 390 kts 333°
2026-04-27 20:54 40.72769 29.09458 36201 ft 390 kts 333°
2026-04-27 20:55 40.77797 29.06713 36206 ft 391 kts 333°
2026-04-27 20:55 40.82832 29.03962 36211 ft 392 kts 333°
2026-04-27 20:56 40.87876 29.01200 36212 ft 393 kts 333°
2026-04-27 20:56 40.92548 28.98637 36213 ft 394 kts 333°
2026-04-27 20:57 40.97599 28.95863 36217 ft 395 kts 333°
2026-04-27 20:57 41.02683 28.93068 36215 ft 396 kts 333°
2026-04-27 20:58 41.07774 28.90262 36213 ft 397 kts 333°
2026-04-27 20:58 41.12873 28.87448 36210 ft 397 kts 333°
2026-04-27 20:59 41.17971 28.84626 36213 ft 397 kts 333°
2026-04-27 20:59 41.23071 28.81804 36208 ft 396 kts 333°
2026-04-27 21:00 41.28128 28.79002 36210 ft 396 kts 333°
2026-04-27 21:00 41.33206 28.76186 36210 ft 395 kts 333°
2026-04-27 21:01 41.38265 28.73373 36213 ft 393 kts 333°
2026-04-27 21:01 41.43278 28.70580 36212 ft 392 kts 333°
2026-04-27 21:02 41.48311 28.67776 36208 ft 391 kts 333°
2026-04-27 21:02 41.53330 28.64975 36215 ft 391 kts 333°
2026-04-27 21:03 41.58345 28.62171 36226 ft 391 kts 333°
2026-04-27 21:03 41.63364 28.59355 36227 ft 391 kts 333°
2026-04-27 21:04 41.68385 28.56533 36226 ft 392 kts 333°
2026-04-27 21:04 41.73416 28.53701 36230 ft 392 kts 333°
2026-04-27 21:05 41.78427 28.50875 36229 ft 393 kts 333°
2026-04-27 21:05 41.83472 28.48027 36232 ft 394 kts 333°
2026-04-27 21:06 41.88528 28.45168 36234 ft 394 kts 333°
2026-04-27 21:06 41.93592 28.42303 36237 ft 395 kts 333°
2026-04-27 21:07 41.98630 28.39450 36236 ft 395 kts 333°
2026-04-27 21:07 42.03698 28.36576 36238 ft 395 kts 333°
2026-04-27 21:08 42.08710 28.33733 36237 ft 395 kts 333°
2026-04-27 21:08 42.13761 28.30865 36235 ft 394 kts 333°
2026-04-27 21:09 42.18808 28.28000 36236 ft 393 kts 333°
2026-04-27 21:09 42.23841 28.25141 36237 ft 392 kts 333°
2026-04-27 21:10 42.28833 28.22304 36240 ft 391 kts 333°
2026-04-27 21:10 42.33849 28.19452 36239 ft 391 kts 333°
2026-04-27 21:11 42.38862 28.16605 36237 ft 390 kts 333°
2026-04-27 21:11 42.43866 28.13764 36239 ft 389 kts 333°
2026-04-27 21:12 42.48832 28.10945 36242 ft 389 kts 333°
2026-04-27 21:12 42.53826 28.08114 36249 ft 389 kts 333°
2026-04-27 21:13 42.58820 28.05286 36246 ft 389 kts 333°
2026-04-27 21:13 42.63816 28.02459 36242 ft 389 kts 333°
2026-04-27 21:14 42.68782 27.99652 36247 ft 389 kts 333°
2026-04-27 21:14 42.73789 27.96824 36240 ft 389 kts 333°
2026-04-27 21:15 42.78787 27.94002 36241 ft 389 kts 333°
2026-04-27 21:15 42.83793 27.91178 36248 ft 389 kts 333°
2026-04-27 21:16 42.88794 27.88358 36240 ft 389 kts 333°
2026-04-27 21:16 42.93801 27.85537 36238 ft 389 kts 333°
2026-04-27 21:17 42.98772 27.82734 36230 ft 389 kts 333°
2026-04-27 21:17 43.03774 27.79914 36225 ft 389 kts 333°
2026-04-27 21:18 43.08775 27.77096 36221 ft 389 kts 333°
2026-04-27 21:18 43.13785 27.74273 36211 ft 389 kts 333°
2026-04-27 21:19 43.18791 27.71448 36217 ft 389 kts 333°
2026-04-27 21:19 43.23524 27.68777 36217 ft 389 kts 333°
2026-04-27 21:20 43.31033 27.64538 36218 ft 389 kts 333°
2026-04-27 21:20 43.36040 27.61710 36215 ft 389 kts 333°
2026-04-27 21:21 43.41040 27.58883 36220 ft 388 kts 333°
2026-04-27 21:21 43.45997 27.56079 36217 ft 387 kts 333°
2026-04-27 21:22 43.50978 27.53255 36219 ft 387 kts 333°
2026-04-27 21:22 43.55957 27.50430 36222 ft 386 kts 333°
2026-04-27 21:23 43.60928 27.47604 36214 ft 386 kts 333°
2026-04-27 21:23 43.65898 27.44771 36215 ft 386 kts 333°
2026-04-27 21:24 43.70863 27.41933 36213 ft 386 kts 333°
2026-04-27 21:24 43.75795 27.39104 36216 ft 386 kts 333°
2026-04-27 21:25 43.80756 27.36244 36203 ft 387 kts 333°
2026-04-27 21:25 43.85724 27.33369 36206 ft 387 kts 333°
2026-04-27 21:26 43.90689 27.30484 36206 ft 387 kts 333°
2026-04-27 21:26 43.95668 27.27582 36200 ft 388 kts 333°
2026-04-27 21:27 44.00642 27.24674 36205 ft 388 kts 333°
2026-04-27 21:27 44.05581 27.21782 36197 ft 388 kts 333°
2026-04-27 21:28 44.10564 27.18861 36193 ft 388 kts 333°
2026-04-27 21:28 44.15536 27.15943 36188 ft 388 kts 333°
2026-04-27 21:29 44.20502 27.13023 36190 ft 387 kts 333°
2026-04-27 21:29 44.25456 27.10108 36185 ft 386 kts 333°
2026-04-27 21:30 44.30370 27.07213 36187 ft 385 kts 333°
2026-04-27 21:30 44.35306 27.04303 36184 ft 384 kts 333°
2026-04-27 21:31 44.39364 27.01912 36183 ft 383 kts 333°
2026-04-27 21:31 44.44275 26.99023 36180 ft 382 kts 333°
2026-04-27 21:32 44.49175 26.96144 36184 ft 381 kts 333°
2026-04-27 21:32 44.54061 26.93273 36174 ft 380 kts 333°
2026-04-27 21:33 44.58929 26.90414 36178 ft 379 kts 333°
2026-04-27 21:33 44.63764 26.87574 36172 ft 379 kts 333°
2026-04-27 21:34 44.68626 26.84722 36173 ft 378 kts 333°
2026-04-27 21:34 44.73483 26.81873 36171 ft 378 kts 333°
2026-04-27 21:35 44.78334 26.79028 36175 ft 378 kts 333°
2026-04-27 21:35 44.83154 26.76200 36173 ft 378 kts 333°
2026-04-27 21:36 44.88007 26.73349 36178 ft 378 kts 333°
2026-04-27 21:36 44.92865 26.70491 36171 ft 378 kts 333°
2026-04-27 21:37 44.97729 26.67629 36174 ft 379 kts 333°
2026-04-27 21:37 45.02600 26.64760 36178 ft 379 kts 333°
2026-04-27 21:38 45.07438 26.61905 36179 ft 380 kts 333°
2026-04-27 21:38 45.12319 26.59021 36177 ft 380 kts 333°
2026-04-27 21:39 45.17203 26.56127 36188 ft 381 kts 333°
2026-04-27 21:39 45.22098 26.53217 36184 ft 382 kts 333°
2026-04-27 21:40 45.27001 26.50292 36196 ft 383 kts 333°
2026-04-27 21:40 45.31883 26.47374 36193 ft 383 kts 333°
2026-04-27 21:41 45.36795 26.44433 36193 ft 383 kts 333°
2026-04-27 21:41 45.41722 26.41479 36198 ft 384 kts 333°
2026-04-27 21:42 45.46644 26.38525 36197 ft 383 kts 333°
2026-04-27 21:42 45.51522 26.35589 36199 ft 382 kts 333°
2026-04-27 21:43 45.56410 26.32634 36214 ft 381 kts 333°
2026-04-27 21:43 45.61285 26.29676 36210 ft 379 kts 333°
2026-04-27 21:44 45.66070 26.26761 36201 ft 379 kts 333°
2026-04-27 21:44 45.70893 26.23812 36203 ft 378 kts 333°
2026-04-27 21:45 45.75718 26.20853 36201 ft 377 kts 333°
2026-04-27 21:45 45.80531 26.17893 36199 ft 376 kts 333°
2026-04-27 21:46 45.85328 26.14931 36185 ft 374 kts 333°
2026-04-27 21:46 45.90066 26.11996 36190 ft 372 kts 333°
2026-04-27 21:47 45.94821 26.09042 36205 ft 371 kts 333°
2026-04-27 21:47 45.99546 26.06099 36205 ft 369 kts 333°
2026-04-27 21:48 46.04259 26.03159 36203 ft 368 kts 333°
2026-04-27 21:48 46.08924 26.00243 36205 ft 368 kts 333°
2026-04-27 21:49 46.13614 25.97302 36201 ft 368 kts 333°
2026-04-27 21:49 46.18323 25.94347 36223 ft 370 kts 333°
2026-04-27 21:50 46.23030 25.91387 36209 ft 371 kts 333°
2026-04-27 21:50 46.27807 25.88509 36190 ft 376 kts 343°
2026-04-27 21:51 46.30424 25.88180 36220 ft 384 kts
2026-04-27 21:51 46.33034 25.89163 36205 ft 396 kts 20°
2026-04-27 21:51 46.35350 25.91398 36209 ft 408 kts 39°
2026-04-27 21:51 46.37106 25.94673 36219 ft 419 kts 58°
2026-04-27 21:52 46.38108 25.98682 36206 ft 430 kts 77°
2026-04-27 21:52 46.38252 26.02655 36216 ft 437 kts 94°
2026-04-27 21:52 46.37664 26.06991 36232 ft 440 kts 105°
2026-04-27 21:52 46.36423 26.11052 36199 ft 443 kts 124°
2026-04-27 21:53 46.34412 26.14397 36205 ft 441 kts 143°
2026-04-27 21:53 46.31840 26.16747 36240 ft 436 kts 158°
2026-04-27 21:53 46.26202 26.20030 36207 ft 437 kts 163°
2026-04-27 21:54 46.20508 26.23047 36212 ft 440 kts 163°
2026-04-27 21:54 46.14727 26.26068 36203 ft 443 kts 163°
2026-04-27 21:55 46.08900 26.29095 36188 ft 444 kts 163°
2026-04-27 21:55 46.03129 26.32089 36186 ft 444 kts 163°
2026-04-27 21:56 45.94447 26.36593 36184 ft 441 kts 163°
2026-04-27 21:57 45.88702 26.39679 36202 ft 444 kts 161°
2026-04-27 21:57 45.82902 26.43083 36198 ft 456 kts 161°
2026-04-27 21:58 45.76973 26.46580 36202 ft 466 kts 161°
2026-04-27 21:58 45.70898 26.50114 36196 ft 476 kts 161°
2026-04-27 21:59 45.64740 26.53663 36195 ft 484 kts 161°
2026-04-27 21:59 45.58491 26.57249 36181 ft 484 kts 161°
2026-04-27 22:00 45.52265 26.60815 36170 ft 478 kts 161°
2026-04-27 22:00 45.46152 26.64308 36180 ft 475 kts 161°
2026-04-27 22:01 45.40035 26.67793 36177 ft 473 kts 161°
2026-04-27 22:01 45.34029 26.71205 36177 ft 472 kts 161°
2026-04-27 22:02 45.27901 26.74678 36184 ft 478 kts 161°
2026-04-27 22:02 45.21678 26.78154 36175 ft 482 kts 162°
2026-04-27 22:03 45.15434 26.81525 36159 ft 478 kts 163°
2026-04-27 22:03 45.09218 26.84865 36160 ft 477 kts 163°
2026-04-27 22:04 45.02981 26.88220 36167 ft 482 kts 163°
2026-04-27 22:04 44.96762 26.91570 36157 ft 481 kts 163°
2026-04-27 22:05 44.90512 26.94933 36149 ft 479 kts 163°
2026-04-27 22:05 44.84291 26.98273 36154 ft 477 kts 163°
2026-04-27 22:06 44.78089 27.01592 36154 ft 476 kts 163°
2026-04-27 22:06 44.71899 27.04897 36162 ft 475 kts 163°
2026-04-27 22:07 44.65761 27.08166 36165 ft 475 kts 163°
2026-04-27 22:07 44.59572 27.11456 36161 ft 475 kts 163°
2026-04-27 22:08 44.53379 27.14740 36164 ft 475 kts 163°
2026-04-27 22:08 44.47190 27.18014 36164 ft 475 kts 163°
2026-04-27 22:09 44.40997 27.21283 36164 ft 476 kts 163°
2026-04-27 22:09 44.34846 27.24523 36168 ft 476 kts 163°
2026-04-27 22:10 44.28647 27.27781 36165 ft 475 kts 163°
2026-04-27 22:10 44.22456 27.31028 36173 ft 475 kts 163°
2026-04-27 22:11 44.16262 27.34268 36171 ft 475 kts 163°
2026-04-27 22:11 44.10080 27.37496 36179 ft 474 kts 163°
2026-04-27 22:12 44.03949 27.40689 36178 ft 473 kts 163°
2026-04-27 22:12 43.97785 27.43892 36183 ft 473 kts 163°
2026-04-27 22:13 43.91625 27.47086 36180 ft 472 kts 163°
2026-04-27 22:13 43.85482 27.50265 36200 ft 471 kts 163°
2026-04-27 22:14 43.79364 27.53422 36192 ft 471 kts 163°
2026-04-27 22:14 43.73231 27.56582 36195 ft 470 kts 163°
2026-04-27 22:15 43.67092 27.59737 36196 ft 470 kts 163°
2026-04-27 22:15 43.62488 27.62099 36206 ft 470 kts 163°
2026-04-27 22:16 43.56351 27.65241 36201 ft 470 kts 163°
2026-04-27 22:16 43.50214 27.68376 36217 ft 471 kts 163°
2026-04-27 22:17 43.44085 27.71499 36215 ft 473 kts 163°
2026-04-27 22:17 43.37898 27.74647 36211 ft 475 kts 163°
2026-04-27 22:18 43.31699 27.77794 36202 ft 475 kts 163°
2026-04-27 22:18 43.25496 27.80936 36206 ft 474 kts 163°
2026-04-27 22:19 43.19353 27.84042 36206 ft 472 kts 163°
2026-04-27 22:19 43.13181 27.87155 36220 ft 471 kts 163°
2026-04-27 22:20 43.07024 27.90253 36204 ft 470 kts 163°
2026-04-27 22:20 43.00921 27.93317 36091 ft 471 kts 163°
2026-04-27 22:20 42.97838 27.94861 35793 ft 472 kts 163°
2026-04-27 22:21 42.94742 27.96412 35353 ft 471 kts 163°
2026-04-27 22:21 42.91683 27.97944 34965 ft 464 kts 163°
2026-04-27 22:21 42.88663 27.99456 34540 ft 459 kts 163°
2026-04-27 22:21 42.85673 28.00950 34081 ft 455 kts 163°
2026-04-27 22:22 42.82740 28.02414 33589 ft 451 kts 163°
2026-04-27 22:22 42.79796 28.03880 33104 ft 448 kts 163°
2026-04-27 22:22 42.76880 28.05331 32615 ft 443 kts 163°
2026-04-27 22:22 42.73992 28.06766 32142 ft 442 kts 163°
2026-04-27 22:23 42.71093 28.08204 31697 ft 446 kts 163°
2026-04-27 22:23 42.68150 28.09661 31250 ft 451 kts 163°
2026-04-27 22:23 42.65187 28.11127 30803 ft 454 kts 162°
2026-04-27 22:23 42.62219 28.12597 30366 ft 453 kts 162°
2026-04-27 22:24 42.59292 28.14045 29869 ft 453 kts 162°
2026-04-27 22:24 42.56289 28.15531 29357 ft 453 kts 162°
2026-04-27 22:24 42.53333 28.16991 28860 ft 452 kts 162°
2026-04-27 22:24 42.50413 28.18431 28381 ft 452 kts 162°
2026-04-27 22:25 42.47456 28.19888 27900 ft 452 kts 162°
2026-04-27 22:25 42.44489 28.21349 27426 ft 452 kts 162°
2026-04-27 22:25 42.41525 28.22806 26955 ft 453 kts 162°
2026-04-27 22:25 42.38560 28.24262 26507 ft 455 kts 162°
2026-04-27 22:26 42.35572 28.25728 26059 ft 458 kts 162°
2026-04-27 22:26 42.32604 28.27182 25612 ft 459 kts 162°
2026-04-27 22:26 42.29614 28.28647 25178 ft 455 kts 162°
2026-04-27 22:26 42.26645 28.30101 24748 ft 450 kts 162°
2026-04-27 22:27 42.23709 28.31538 24311 ft 447 kts 162°
2026-04-27 22:27 42.20794 28.32962 23894 ft 444 kts 162°
2026-04-27 22:27 42.17895 28.34377 23425 ft 442 kts 162°
2026-04-27 22:27 42.15013 28.35781 22932 ft 440 kts 162°
2026-04-27 22:28 42.12137 28.37181 22446 ft 438 kts 162°
2026-04-27 22:28 42.09281 28.38569 21972 ft 436 kts 162°
2026-04-27 22:28 42.06434 28.39952 21510 ft 434 kts 162°
2026-04-27 22:28 42.03637 28.41310 21057 ft 432 kts 162°
2026-04-27 22:29 42.00817 28.42678 20601 ft 430 kts 162°
2026-04-27 22:29 41.98017 28.44035 20150 ft 425 kts 162°
2026-04-27 22:29 41.95231 28.45384 19710 ft 423 kts 162°
2026-04-27 22:29 41.92484 28.46713 19271 ft 417 kts 162°
2026-04-27 22:30 41.89778 28.48021 18846 ft 410 kts 162°
2026-04-27 22:30 41.87111 28.49310 18412 ft 404 kts 162°
2026-04-27 22:30 41.84484 28.50577 17923 ft 399 kts 162°
2026-04-27 22:30 41.81879 28.51832 17430 ft 394 kts 162°
2026-04-27 22:31 41.79346 28.53052 16976 ft 390 kts 162°
2026-04-27 22:31 41.76808 28.54273 16516 ft 386 kts 162°
2026-04-27 22:31 41.74292 28.55483 16059 ft 382 kts 162°
2026-04-27 22:31 41.71798 28.56680 15614 ft 378 kts 162°
2026-04-27 22:32 41.69327 28.57866 15176 ft 375 kts 162°
2026-04-27 22:32 41.66878 28.59039 14735 ft 372 kts 162°
2026-04-27 22:32 41.64443 28.60205 14306 ft 370 kts 162°
2026-04-27 22:32 41.62031 28.61360 13914 ft 366 kts 162°
2026-04-27 22:33 41.59653 28.62498 13492 ft 361 kts 162°
2026-04-27 22:33 41.57301 28.63623 13131 ft 356 kts 162°
2026-04-27 22:33 41.55013 28.64716 12763 ft 351 kts 162°
2026-04-27 22:33 41.52720 28.65809 12402 ft 347 kts 162°
2026-04-27 22:34 41.50466 28.66883 12093 ft 341 kts 162°
2026-04-27 22:34 41.48249 28.67939 11786 ft 336 kts 162°
2026-04-27 22:34 41.46799 28.68630 11587 ft 332 kts 162°
2026-04-27 22:34 41.44637 28.69660 11308 ft 327 kts 162°
2026-04-27 22:35 41.42506 28.70673 11034 ft 322 kts 161°
2026-04-27 22:35 41.40410 28.71670 10762 ft 318 kts 161°
2026-04-27 22:35 41.38344 28.72651 10493 ft 314 kts 161°
2026-04-27 22:35 41.36299 28.73622 10255 ft 309 kts 161°
2026-04-27 22:36 41.34290 28.74575 10023 ft 304 kts 161°
2026-04-27 22:36 41.32316 28.75512 9774 ft 299 kts 160°
2026-04-27 22:36 41.30427 28.76631 9538 ft 295 kts 153°
2026-04-27 22:36 41.28621 28.77899 9303 ft 291 kts 152°
2026-04-27 22:37 41.26853 28.79183 9067 ft 288 kts 151°
2026-04-27 22:37 41.25131 28.80430 8838 ft 284 kts 152°
2026-04-27 22:37 41.23377 28.81688 8591 ft 281 kts 152°
2026-04-27 22:37 41.21683 28.82891 8375 ft 278 kts 152°
2026-04-27 22:38 41.19987 28.84089 8148 ft 274 kts 152°
2026-04-27 22:38 41.18309 28.85267 7916 ft 272 kts 152°
2026-04-27 22:38 41.16644 28.86432 7697 ft 269 kts 152°
2026-04-27 22:38 41.14992 28.87585 7472 ft 267 kts 152°
2026-04-27 22:39 41.13358 28.88723 7246 ft 264 kts 152°
2026-04-27 22:39 41.11753 28.89839 7024 ft 262 kts 152°
2026-04-27 22:39 41.10145 28.90957 6811 ft 259 kts 152°
2026-04-27 22:39 41.08555 28.92062 6588 ft 257 kts 152°
2026-04-27 22:40 41.06977 28.93156 6353 ft 255 kts 152°
2026-04-27 22:40 41.05412 28.94242 6141 ft 253 kts 152°
2026-04-27 22:40 41.03854 28.95321 5917 ft 251 kts 151°
2026-04-27 22:40 41.02315 28.96387 5698 ft 249 kts 151°
2026-04-27 22:41 41.00781 28.97448 5486 ft 247 kts 151°
2026-04-27 22:41 40.99285 28.98483 5270 ft 245 kts 151°
2026-04-27 22:41 40.97778 28.99525 5056 ft 243 kts 151°
2026-04-27 22:41 40.96280 29.00560 4836 ft 241 kts 151°
2026-04-27 22:42 40.94794 29.01587 4615 ft 239 kts 151°
2026-04-27 22:42 40.93325 29.02601 4390 ft 237 kts 151°
2026-04-27 22:42 40.91892 29.03590 4175 ft 235 kts 151°
2026-04-27 22:42 40.90439 29.04592 3957 ft 233 kts 151°
2026-04-27 22:43 40.88999 29.05586 3744 ft 232 kts 151°
2026-04-27 22:43 40.87571 29.06570 3540 ft 231 kts 152°
2026-04-27 22:43 40.86156 29.07544 3347 ft 226 kts 152°
2026-04-27 22:43 40.84797 29.08478 3145 ft 219 kts 152°
2026-04-27 22:44 40.83476 29.09401 3009 ft 209 kts 147°
2026-04-27 22:44 40.82609 29.10829 2988 ft 199 kts 100°
2026-04-27 22:44 40.82770 29.12555 2991 ft 189 kts 54°
2026-04-27 22:44 40.83521 29.13949 3004 ft 185 kts 54°
2026-04-27 22:45 40.84141 29.15397 2997 ft 178 kts 59°
2026-04-27 22:45 40.84712 29.16877 2787 ft 183 kts 60°
2026-04-27 22:45 40.85273 29.18398 2514 ft 183 kts 61°
2026-04-27 22:45 40.85825 29.19910 2235 ft 182 kts 62°
2026-04-27 22:46 40.86369 29.21398 1962 ft 179 kts 62°
2026-04-27 22:46 40.86904 29.22861 1678 ft 179 kts 62°
2026-04-27 22:46 40.87391 29.24191 1405 ft 173 kts 63°
2026-04-27 22:46 40.87891 29.25559 1122 ft 157 kts 63°
2026-04-27 22:47 40.88346 29.26802 827 ft 142 kts 62°
2026-04-27 22:47 40.88757 29.27953 602 ft 140 kts 63°
2026-04-27 22:47 40.89181 29.29103 387 ft 138 kts 61°
2026-04-27 22:47 40.89589 29.30184 319 ft 117 kts 64°
2026-04-27 22:48 40.89879 29.30977 319 ft 74 kts 64°
2026-04-27 22:48 40.90158 29.31370 319 ft 54 kts 30°
2026-04-27 22:48 40.90348 29.31479 320 ft 23 kts 329°
2026-04-27 22:48 40.90462 29.31446 318 ft 11 kts 65°
2026-04-27 22:49 40.90488 29.31537 320 ft 10 kts 70°
2026-04-27 22:49 40.90517 29.31622 320 ft 10 kts 64°
2026-04-27 22:49 40.90552 29.31667 320 ft 7 kts 341°
2026-04-27 22:49 40.90595 29.31641 320 ft 7 kts 331°
2026-04-27 22:50 40.90607 29.31632 320 ft 1 kts 333°
2026-04-27 22:50 40.90608 29.31632 320 ft 0 kts 333°